owner,sensor,date,latitude,longitude,vertical_datum,direction_of_sea_water_velocity,sea_water_speed,upward_sea_water_velocity,qcFlag 
TABS,ioos:station:wmo:42051:1,2014-02-01T00:00:00Z,29.6350,-93.6417,2.0,255.8658203,19.94373335,-99999.0,'11111222,11111222,99999999' 
TABS,ioos:station:wmo:42051:1,2014-02-01T00:30:00Z,29.6350,-93.6417,2.0,258.4840965,18.58408459,-99999.0,'11111222,11111222,99999999' 
TABS,ioos:station:wmo:42051:1,2014-02-01T01:00:00Z,29.6350,-93.6417,2.0,253.7431352,18.46840004,-99999.0,'11111222,11111222,99999999' 
TABS,ioos:station:wmo:42051:1,2014-02-01T01:30:00Z,29.6350,-93.6417,2.0,255.8718732,21.26312536,-99999.0,'11111222,11111222,99999999' 
TABS,ioos:station:wmo:42051:1,2014-02-01T02:00:00Z,29.6350,-93.6417,2.0,249.8201676,18.69772713,-99999.0,'11111222,11111222,99999999' 
TABS,ioos:station:wmo:42051:1,2014-02-01T02:30:00Z,29.6350,-93.6417,2.0,251.0396238,11.38784001,-99999.0,'11111222,11111222,99999999' 
TABS,ioos:station:wmo:42051:1,2014-02-01T03:00:00Z,29.6350,-93.6417,2.0,268.9230719,12.24216076,-99999.0,'11111222,11111222,99999999' 
TABS,ioos:station:wmo:42051:1,2014-02-01T03:30:00Z,29.6350,-93.6417,2.0,275.3461241,12.34368665,-99999.0,'11111222,11111222,99999999' 
TABS,ioos:station:wmo:42051:1,2014-02-01T04:00:00Z,29.6350,-93.6417,2.0,277.4459334,15.74273483,-99999.0,'11111222,11111222,99999999' 
TABS,ioos:station:wmo:42051:1,2014-02-01T04:30:00Z,29.6350,-93.6417,2.0,273.1315516,15.01241153,-99999.0,'11111222,11111222,99999999' 
TABS,ioos:station:wmo:42051:1,2014-02-01T05:00:00Z,29.6350,-93.6417,2.0,273.7857938,17.26767211,-99999.0,'11111222,11111222,99999999' 
TABS,ioos:station:wmo:42051:1,2014-02-01T05:30:00Z,29.6350,-93.6417,2.0,287.7567297,16.82133467,-99999.0,'11111222,11111222,99999999' 
TABS,ioos:station:wmo:42051:1,2014-02-01T06:00:00Z,29.6350,-93.6417,2.0,280.5255042,16.75185064,-99999.0,'11111222,11111222,99999999' 
TABS,ioos:station:wmo:42051:1,2014-02-01T06:30:00Z,29.6350,-93.6417,2.0,274.177832,20.45434184,-99999.0,'11111222,11111222,99999999' 
TABS,ioos:station:wmo:42051:1,2014-02-01T07:00:00Z,29.6350,-93.6417,2.0,274.7405769,16.21546176,-99999.0,'11111222,11111222,99999999' 
TABS,ioos:station:wmo:42051:1,2014-02-01T07:30:00Z,29.6350,-93.6417,2.0,268.4600891,17.866449,-99999.0,'11111222,11111222,99999999' 
TABS,ioos:station:wmo:42051:1,2014-02-01T08:00:00Z,29.6350,-93.6417,2.0,265.3832378,19.38287904,-99999.0,'11111222,11111222,99999999' 
TABS,ioos:station:wmo:42051:1,2014-02-01T08:30:00Z,29.6350,-93.6417,2.0,266.4367138,21.24105459,-99999.0,'11111222,11111222,99999999' 
TABS,ioos:station:wmo:42051:1,2014-02-01T09:00:00Z,29.6350,-93.6417,2.0,258.3912346,22.21437598,-99999.0,'11111222,11111222,99999999' 
TABS,ioos:station:wmo:42051:1,2014-02-01T09:30:00Z,29.6350,-93.6417,2.0,262.4441089,20.30629952,-99999.0,'11111222,11111222,99999999' 
TABS,ioos:station:wmo:42051:1,2014-02-01T10:00:00Z,29.6350,-93.6417,2.0,263.7732609,20.56128644,-99999.0,'11111222,11111222,99999999' 
TABS,ioos:station:wmo:42051:1,2014-02-01T10:30:00Z,29.6350,-93.6417,2.0,269.2658776,17.96147266,-99999.0,'11111222,11111222,99999999' 
TABS,ioos:station:wmo:42051:1,2014-02-01T11:00:00Z,29.6350,-93.6417,2.0,254.0918995,16.70991622,-99999.0,'11111222,11111222,99999999' 
TABS,ioos:station:wmo:42051:1,2014-02-01T11:30:00Z,29.6350,-93.6417,2.0,242.8221896,15.06301431,-99999.0,'11111222,11111222,99999999' 
TABS,ioos:station:wmo:42051:1,2014-02-01T12:00:00Z,29.6350,-93.6417,2.0,246.197384,16.70047904,-99999.0,'11111222,11111222,99999999' 
TABS,ioos:station:wmo:42051:1,2014-02-01T12:30:00Z,29.6350,-93.6417,2.0,243.9758845,18.4618011,-99999.0,'11111222,11111222,99999999' 
TABS,ioos:station:wmo:42051:1,2014-02-01T13:00:00Z,29.6350,-93.6417,2.0,236.2737245,17.72267474,-99999.0,'11111222,11111222,99999999' 
TABS,ioos:station:wmo:42051:1,2014-02-01T13:30:00Z,29.6350,-93.6417,2.0,239.7329474,16.07060671,-99999.0,'11111222,11111222,99999999' 
TABS,ioos:station:wmo:42051:1,2014-02-01T14:00:00Z,29.6350,-93.6417,2.0,254.2969972,17.18121358,-99999.0,'11111222,11111222,99999999' 
TABS,ioos:station:wmo:42051:1,2014-02-01T14:30:00Z,29.6350,-93.6417,2.0,247.4145479,15.20615665,-99999.0,'11111222,11111222,99999999' 
TABS,ioos:station:wmo:42051:1,2014-02-01T15:00:00Z,29.6350,-93.6417,2.0,264.8008102,11.919031,-99999.0,'11111222,11111222,99999999' 
TABS,ioos:station:wmo:42051:1,2014-02-01T15:30:00Z,29.6350,-93.6417,2.0,268.6443389,10.99307509,-99999.0,'11111222,11111222,99999999' 
TABS,ioos:station:wmo:42051:1,2014-02-01T16:00:00Z,29.6350,-93.6417,2.0,268.5028837,12.63431043,-99999.0,'11111222,11111222,99999999' 
TABS,ioos:station:wmo:42051:1,2014-02-01T16:30:00Z,29.6350,-93.6417,2.0,289.8591532,12.59924204,-99999.0,'11111222,11111222,99999999' 
TABS,ioos:station:wmo:42051:1,2014-02-01T17:00:00Z,29.6350,-93.6417,2.0,291.1704695,13.65129298,-99999.0,'11111222,11111222,99999999' 
TABS,ioos:station:wmo:42051:1,2014-02-01T17:30:00Z,29.6350,-93.6417,2.0,297.4747883,13.80722275,-99999.0,'11111222,11111222,99999999' 
TABS,ioos:station:wmo:42051:1,2014-02-01T18:00:00Z,29.6350,-93.6417,2.0,308.4272309,15.75181577,-99999.0,'11111222,11111222,99999999' 
TABS,ioos:station:wmo:42051:1,2014-02-01T18:30:00Z,29.6350,-93.6417,2.0,313.3195358,18.32194859,-99999.0,'11111222,11111222,99999999' 
TABS,ioos:station:wmo:42051:1,2014-02-01T19:00:00Z,29.6350,-93.6417,2.0,310.8164112,19.67464612,-99999.0,'11111222,11111222,99999999' 
TABS,ioos:station:wmo:42051:1,2014-02-01T19:30:00Z,29.6350,-93.6417,2.0,315.7544166,20.95338875,-99999.0,'11111222,11111222,99999999' 
TABS,ioos:station:wmo:42051:1,2014-02-01T20:00:00Z,29.6350,-93.6417,2.0,305.7600906,22.1941659,-99999.0,'11111222,11111222,99999999' 
TABS,ioos:station:wmo:42051:1,2014-02-01T20:30:00Z,29.6350,-93.6417,2.0,302.0082501,24.09269184,-99999.0,'11111222,11111222,99999999' 
TABS,ioos:station:wmo:42051:1,2014-02-01T21:00:00Z,29.6350,-93.6417,2.0,299.8381982,22.16875729,-99999.0,'11111222,11111222,99999999' 
TABS,ioos:station:wmo:42051:1,2014-02-01T21:30:00Z,29.6350,-93.6417,2.0,298.1063396,20.12294462,-99999.0,'11111222,11111222,99999999' 
TABS,ioos:station:wmo:42051:1,2014-02-01T22:00:00Z,29.6350,-93.6417,2.0,294.6198602,21.33991799,-99999.0,'11111222,11111222,99999999' 
TABS,ioos:station:wmo:42051:1,2014-02-01T22:30:00Z,29.6350,-93.6417,2.0,285.7585395,22.27725522,-99999.0,'11111222,11111222,99999999' 
TABS,ioos:station:wmo:42051:1,2014-02-01T23:00:00Z,29.6350,-93.6417,2.0,278.0508717,20.35055282,-99999.0,'11111222,11111222,99999999' 
TABS,ioos:station:wmo:42051:1,2014-02-01T23:30:00Z,29.6350,-93.6417,2.0,274.3158711,19.00387855,-99999.0,'11111222,11111222,99999999' 
TABS,ioos:station:wmo:42051:1,2014-02-02T00:00:00Z,29.6350,-93.6417,2.0,273.9529704,18.71451308,-99999.0,'11111222,11111222,99999999' 
TABS,ioos:station:wmo:42051:1,2014-02-02T00:30:00Z,29.6350,-93.6417,2.0,265.1735633,18.30489552,-99999.0,'11111222,11111222,99999999' 
TABS,ioos:station:wmo:42051:1,2014-02-02T01:00:00Z,29.6350,-93.6417,2.0,276.7539792,19.13275986,-99999.0,'11111222,11111222,99999999' 
TABS,ioos:station:wmo:42051:1,2014-02-02T01:30:00Z,29.6350,-93.6417,2.0,285.4636589,17.14045799,-99999.0,'11111222,11111222,99999999' 
TABS,ioos:station:wmo:42051:1,2014-02-02T02:00:00Z,29.6350,-93.6417,2.0,291.7956737,17.42565063,-99999.0,'11111222,11111222,99999999' 
TABS,ioos:station:wmo:42051:1,2014-02-02T02:30:00Z,29.6350,-93.6417,2.0,297.0972779,17.3436905,-99999.0,'11111222,11111222,99999999' 
TABS,ioos:station:wmo:42051:1,2014-02-02T03:00:00Z,29.6350,-93.6417,2.0,296.9314139,16.8021576,-99999.0,'11111222,11111222,99999999' 
TABS,ioos:station:wmo:42051:1,2014-02-02T03:30:00Z,29.6350,-93.6417,2.0,292.0206527,15.06928665,-99999.0,'11111222,11111222,99999999' 
TABS,ioos:station:wmo:42051:1,2014-02-02T04:00:00Z,29.6350,-93.6417,2.0,286.962728,17.10408431,-99999.0,'11111222,11111222,99999999' 
TABS,ioos:station:wmo:42051:1,2014-02-02T04:30:00Z,29.6350,-93.6417,2.0,286.0561176,15.69209992,-99999.0,'11111222,11111222,99999999' 
TABS,ioos:station:wmo:42051:1,2014-02-02T05:00:00Z,29.6350,-93.6417,2.0,298.8351794,16.7120675,-99999.0,'11111222,11111222,99999999' 
TABS,ioos:station:wmo:42051:1,2014-02-02T05:30:00Z,29.6350,-93.6417,2.0,282.3425692,16.98249098,-99999.0,'11111222,11111222,99999999' 
TABS,ioos:station:wmo:42051:1,2014-02-02T06:00:00Z,29.6350,-93.6417,2.0,277.8328784,18.78525219,-99999.0,'11111222,11111222,99999999' 
TABS,ioos:station:wmo:42051:1,2014-02-02T06:30:00Z,29.6350,-93.6417,2.0,276.6614829,18.53511802,-99999.0,'11111222,11111222,99999999' 
TABS,ioos:station:wmo:42051:1,2014-02-02T07:00:00Z,29.6350,-93.6417,2.0,271.4747143,21.37707651,-99999.0,'11111222,11111222,99999999' 
TABS,ioos:station:wmo:42051:1,2014-02-02T07:30:00Z,29.6350,-93.6417,2.0,268.3727858,20.07809254,-99999.0,'11111222,11111222,99999999' 
TABS,ioos:station:wmo:42051:1,2014-02-02T08:00:00Z,29.6350,-93.6417,2.0,260.0103457,21.27248458,-99999.0,'11111222,11111222,99999999' 
TABS,ioos:station:wmo:42051:1,2014-02-02T08:30:00Z,29.6350,-93.6417,2.0,264.4955787,23.45815423,-99999.0,'11111222,11111222,99999999' 
TABS,ioos:station:wmo:42051:1,2014-02-02T09:00:00Z,29.6350,-93.6417,2.0,263.3251256,24.60677143,-99999.0,'11111222,11111222,99999999' 
TABS,ioos:station:wmo:42051:1,2014-02-02T09:30:00Z,29.6350,-93.6417,2.0,259.5714367,28.67361331,-99999.0,'11111222,11111222,99999999' 
TABS,ioos:station:wmo:42051:1,2014-02-02T10:00:00Z,29.6350,-93.6417,2.0,255.3972948,31.17705085,-99999.0,'11111222,11111222,99999999' 
TABS,ioos:station:wmo:42051:1,2014-02-02T10:30:00Z,29.6350,-93.6417,2.0,253.819424,31.50803072,-99999.0,'11111222,11111222,99999999' 
TABS,ioos:station:wmo:42051:1,2014-02-02T11:00:00Z,29.6350,-93.6417,2.0,250.2918716,35.73306732,-99999.0,'11111222,11111222,99999999' 
TABS,ioos:station:wmo:42051:1,2014-02-02T11:30:00Z,29.6350,-93.6417,2.0,242.5702234,37.94591941,-99999.0,'11111222,11111222,99999999' 
TABS,ioos:station:wmo:42051:1,2014-02-02T12:00:00Z,29.6350,-93.6417,2.0,246.965888,28.7522886,-99999.0,'11111222,11111222,99999999' 
TABS,ioos:station:wmo:42051:1,2014-02-02T12:30:00Z,29.6350,-93.6417,2.0,244.9266044,24.04588322,-99999.0,'11111222,11111222,99999999' 
TABS,ioos:station:wmo:42051:1,2014-02-02T13:00:00Z,29.6350,-93.6417,2.0,253.7373846,22.60440001,-99999.0,'11111222,11111222,99999999' 
TABS,ioos:station:wmo:42051:1,2014-02-02T13:30:00Z,29.6350,-93.6417,2.0,255.070036,20.06741139,-99999.0,'11111222,11111222,99999999' 
TABS,ioos:station:wmo:42051:1,2014-02-02T14:00:00Z,29.6350,-93.6417,2.0,254.4465776,22.26529587,-99999.0,'11111222,11111222,99999999' 
TABS,ioos:station:wmo:42051:1,2014-02-02T14:30:00Z,29.6350,-93.6417,2.0,251.4692716,26.58846742,-99999.0,'11111222,11111222,99999999' 
TABS,ioos:station:wmo:42051:1,2014-02-02T15:00:00Z,29.6350,-93.6417,2.0,258.8203208,34.40278186,-99999.0,'11111222,11111222,99999999' 
TABS,ioos:station:wmo:42051:1,2014-02-02T15:30:00Z,29.6350,-93.6417,2.0,263.1363924,32.30146282,-99999.0,'11111222,11111222,99999999' 
TABS,ioos:station:wmo:42051:1,2014-02-02T16:00:00Z,29.6350,-93.6417,2.0,271.4129563,30.01912224,-99999.0,'11111222,11111222,99999999' 
TABS,ioos:station:wmo:42051:1,2014-02-02T16:30:00Z,29.6350,-93.6417,2.0,279.3181249,34.52554127,-99999.0,'11111222,11111222,99999999' 
TABS,ioos:station:wmo:42051:1,2014-02-02T17:00:00Z,29.6350,-93.6417,2.0,277.5204789,31.48076397,-99999.0,'11111222,11111222,99999999' 
TABS,ioos:station:wmo:42051:1,2014-02-02T17:30:00Z,29.6350,-93.6417,2.0,284.2289288,30.35107906,-99999.0,'11111222,11111222,99999999' 
TABS,ioos:station:wmo:42051:1,2014-02-02T18:00:00Z,29.6350,-93.6417,2.0,293.2489264,31.61728799,-99999.0,'11111222,11111222,99999999' 
TABS,ioos:station:wmo:42051:1,2014-02-02T18:30:00Z,29.6350,-93.6417,2.0,290.3880831,32.66632517,-99999.0,'11111222,11111222,99999999' 
TABS,ioos:station:wmo:42051:1,2014-02-02T19:00:00Z,29.6350,-93.6417,2.0,291.4852868,32.27248518,-99999.0,'11111222,11111222,99999999' 
TABS,ioos:station:wmo:42051:1,2014-02-02T19:30:00Z,29.6350,-93.6417,2.0,294.5938913,31.06843092,-99999.0,'11111222,11111222,99999999' 
TABS,ioos:station:wmo:42051:1,2014-02-02T20:00:00Z,29.6350,-93.6417,2.0,289.581323,30.67390422,-99999.0,'11111222,11111222,99999999' 
TABS,ioos:station:wmo:42051:1,2014-02-02T20:30:00Z,29.6350,-93.6417,2.0,286.900657,34.12372928,-99999.0,'11111222,11111222,99999999' 
TABS,ioos:station:wmo:42051:1,2014-02-02T21:00:00Z,29.6350,-93.6417,2.0,279.7627417,32.02371777,-99999.0,'11111222,11111222,99999999' 
TABS,ioos:station:wmo:42051:1,2014-02-02T21:30:00Z,29.6350,-93.6417,2.0,280.2225656,29.13241837,-99999.0,'11111222,11111222,99999999' 
TABS,ioos:station:wmo:42051:1,2014-02-02T22:00:00Z,29.6350,-93.6417,2.0,265.2829658,28.33595772,-99999.0,'11111222,11111222,99999999' 
TABS,ioos:station:wmo:42051:1,2014-02-02T22:30:00Z,29.6350,-93.6417,2.0,255.4261237,30.52202483,-99999.0,'11111222,11111222,99999999' 
TABS,ioos:station:wmo:42051:1,2014-02-02T23:00:00Z,29.6350,-93.6417,2.0,253.1907333,29.5317541,-99999.0,'11111222,11111222,99999999' 
TABS,ioos:station:wmo:42051:1,2014-02-02T23:30:00Z,29.6350,-93.6417,2.0,235.4256734,31.1029677,-99999.0,'11111222,11111222,99999999' 
TABS,ioos:station:wmo:42051:1,2014-02-03T00:00:00Z,29.6350,-93.6417,2.0,230.9681866,29.8532427,-99999.0,'11111222,11111222,99999999' 
TABS,ioos:station:wmo:42051:1,2014-02-03T00:30:00Z,29.6350,-93.6417,2.0,234.3965857,31.57171677,-99999.0,'11111222,11111222,99999999' 
TABS,ioos:station:wmo:42051:1,2014-02-03T01:00:00Z,29.6350,-93.6417,2.0,220.9150061,31.07141612,-99999.0,'11111222,11111222,99999999' 
TABS,ioos:station:wmo:42051:1,2014-02-03T01:30:00Z,29.6350,-93.6417,2.0,225.4683829,25.06777413,-99999.0,'11111222,11111222,99999999' 
TABS,ioos:station:wmo:42051:1,2014-02-03T02:00:00Z,29.6350,-93.6417,2.0,219.9746456,27.28605871,-99999.0,'11111222,11111222,99999999' 
TABS,ioos:station:wmo:42051:1,2014-02-03T02:30:00Z,29.6350,-93.6417,2.0,225.7063676,31.5322898,-99999.0,'11111222,11111222,99999999' 
TABS,ioos:station:wmo:42051:1,2014-02-03T03:00:00Z,29.6350,-93.6417,2.0,226.4131115,35.26000142,-99999.0,'11111222,11111222,99999999' 
TABS,ioos:station:wmo:42051:1,2014-02-03T03:30:00Z,29.6350,-93.6417,2.0,229.5382478,31.99082994,-99999.0,'11111222,11111222,99999999' 
TABS,ioos:station:wmo:42051:1,2014-02-03T04:00:00Z,29.6350,-93.6417,2.0,229.6709462,29.86840806,-99999.0,'11111222,11111222,99999999' 
TABS,ioos:station:wmo:42051:1,2014-02-03T04:30:00Z,29.6350,-93.6417,2.0,229.4502709,25.14984294,-99999.0,'11111222,11111222,99999999' 
TABS,ioos:station:wmo:42051:1,2014-02-03T05:00:00Z,29.6350,-93.6417,2.0,236.3985702,21.43086792,-99999.0,'11111222,11111222,99999999' 
TABS,ioos:station:wmo:42051:1,2014-02-03T05:30:00Z,29.6350,-93.6417,2.0,244.1135263,16.60620667,-99999.0,'11111222,11111222,99999999' 
TABS,ioos:station:wmo:42051:1,2014-02-03T06:00:00Z,29.6350,-93.6417,2.0,246.4353857,14.60813814,-99999.0,'11111222,11111222,99999999' 
TABS,ioos:station:wmo:42051:1,2014-02-03T06:30:00Z,29.6350,-93.6417,2.0,251.3578308,15.76721916,-99999.0,'11111222,11111222,99999999' 
TABS,ioos:station:wmo:42051:1,2014-02-03T07:00:00Z,29.6350,-93.6417,2.0,252.2657774,10.07893348,-99999.0,'11111222,11111222,99999999' 
TABS,ioos:station:wmo:42051:1,2014-02-03T07:30:00Z,29.6350,-93.6417,2.0,274.3846675,12.16559904,-99999.0,'11111222,11111222,99999999' 
TABS,ioos:station:wmo:42051:1,2014-02-03T08:00:00Z,29.6350,-93.6417,2.0,267.8756297,14.84019542,-99999.0,'11111222,11111222,99999999' 
TABS,ioos:station:wmo:42051:1,2014-02-03T08:30:00Z,29.6350,-93.6417,2.0,261.0269734,16.73478413,-99999.0,'11111222,11111222,99999999' 
TABS,ioos:station:wmo:42051:1,2014-02-03T09:00:00Z,29.6350,-93.6417,2.0,258.1908278,18.47091768,-99999.0,'11111222,11111222,99999999' 
TABS,ioos:station:wmo:42051:1,2014-02-03T09:30:00Z,29.6350,-93.6417,2.0,254.5094409,19.88219555,-99999.0,'11111222,11111222,99999999' 
TABS,ioos:station:wmo:42051:1,2014-02-03T10:00:00Z,29.6350,-93.6417,2.0,257.2559392,20.53586619,-99999.0,'11111222,11111222,99999999' 
TABS,ioos:station:wmo:42051:1,2014-02-03T10:30:00Z,29.6350,-93.6417,2.0,260.5610433,15.8546397,-99999.0,'11111222,11111222,99999999' 
TABS,ioos:station:wmo:42051:1,2014-02-03T11:00:00Z,29.6350,-93.6417,2.0,259.7984826,11.8574407,-99999.0,'11111222,11111222,99999999' 
TABS,ioos:station:wmo:42051:1,2014-02-03T11:30:00Z,29.6350,-93.6417,2.0,235.1607487,11.34312567,-99999.0,'11111222,11111222,99999999' 
TABS,ioos:station:wmo:42051:1,2014-02-03T12:00:00Z,29.6350,-93.6417,2.0,233.7762825,17.19309454,-99999.0,'11111222,11111222,99999999' 
TABS,ioos:station:wmo:42051:1,2014-02-03T12:30:00Z,29.6350,-93.6417,2.0,237.8326017,18.78323721,-99999.0,'11111222,11111222,99999999' 
TABS,ioos:station:wmo:42051:1,2014-02-03T13:00:00Z,29.6350,-93.6417,2.0,242.322193,16.12508915,-99999.0,'11111222,11111222,99999999' 
TABS,ioos:station:wmo:42051:1,2014-02-03T13:30:00Z,29.6350,-93.6417,2.0,238.7455365,14.55184181,-99999.0,'11111222,11111222,99999999' 
TABS,ioos:station:wmo:42051:1,2014-02-03T14:00:00Z,29.6350,-93.6417,2.0,238.2972438,14.63347532,-99999.0,'11111222,11111222,99999999' 
TABS,ioos:station:wmo:42051:1,2014-02-03T14:30:00Z,29.6350,-93.6417,2.0,229.6615465,11.57119268,-99999.0,'11111222,11111222,99999999' 
TABS,ioos:station:wmo:42051:1,2014-02-03T15:00:00Z,29.6350,-93.6417,2.0,227.4633675,14.96914493,-99999.0,'11111222,11111222,99999999' 
TABS,ioos:station:wmo:42051:1,2014-02-03T15:30:00Z,29.6350,-93.6417,2.0,221.7705081,23.22290464,-99999.0,'11111222,11111222,99999999' 
TABS,ioos:station:wmo:42051:1,2014-02-03T16:00:00Z,29.6350,-93.6417,2.0,234.1516784,27.47436987,-99999.0,'11111222,11111222,99999999' 
TABS,ioos:station:wmo:42051:1,2014-02-03T16:30:00Z,29.6350,-93.6417,2.0,245.1211937,35.25123118,-99999.0,'11111222,11111222,99999999' 
TABS,ioos:station:wmo:42051:1,2014-02-03T17:00:00Z,29.6350,-93.6417,2.0,259.7076979,31.67971749,-99999.0,'11111222,11111222,99999999' 
TABS,ioos:station:wmo:42051:1,2014-02-03T17:30:00Z,29.6350,-93.6417,2.0,268.8606507,25.15496969,-99999.0,'11111222,11111222,99999999' 
TABS,ioos:station:wmo:42051:1,2014-02-03T18:00:00Z,29.6350,-93.6417,2.0,277.7377756,20.42596632,-99999.0,'11111222,11111222,99999999' 
TABS,ioos:station:wmo:42051:1,2014-02-03T18:30:00Z,29.6350,-93.6417,2.0,283.1149352,20.05301474,-99999.0,'11111222,11111222,99999999' 
TABS,ioos:station:wmo:42051:1,2014-02-03T19:00:00Z,29.6350,-93.6417,2.0,269.3945925,44.5124814,-99999.0,'11111222,11111222,99999999' 
TABS,ioos:station:wmo:42051:1,2014-02-03T19:30:00Z,29.6350,-93.6417,2.0,276.3727376,39.3732625,-99999.0,'11111222,11111222,99999999' 
TABS,ioos:station:wmo:42051:1,2014-02-03T20:00:00Z,29.6350,-93.6417,2.0,275.8103408,36.15572569,-99999.0,'11111222,11111222,99999999' 
TABS,ioos:station:wmo:42051:1,2014-02-03T20:30:00Z,29.6350,-93.6417,2.0,268.4708978,46.10640953,-99999.0,'11111222,11111222,99999999' 
TABS,ioos:station:wmo:42051:1,2014-02-03T21:00:00Z,29.6350,-93.6417,2.0,277.0289862,42.00566271,-99999.0,'11111222,11111222,99999999' 
TABS,ioos:station:wmo:42051:1,2014-02-03T21:30:00Z,29.6350,-93.6417,2.0,283.34505,37.17371787,-99999.0,'11111222,11111222,99999999' 
TABS,ioos:station:wmo:42051:1,2014-02-03T22:00:00Z,29.6350,-93.6417,2.0,281.114684,40.20404209,-99999.0,'11111222,11111222,99999999' 
TABS,ioos:station:wmo:42051:1,2014-02-03T22:30:00Z,29.6350,-93.6417,2.0,275.468988,47.11443622,-99999.0,'11111222,11111222,99999999' 
TABS,ioos:station:wmo:42051:1,2014-02-03T23:00:00Z,29.6350,-93.6417,2.0,279.1124571,45.71692466,-99999.0,'11111222,11111222,99999999' 
TABS,ioos:station:wmo:42051:1,2014-02-03T23:30:00Z,29.6350,-93.6417,2.0,281.2926236,44.43011254,-99999.0,'11111222,11111222,99999999' 
TABS,ioos:station:wmo:42051:1,2014-02-04T00:00:00Z,29.6350,-93.6417,2.0,275.9279112,40.47641288,-99999.0,'11111222,11111222,99999999' 
TABS,ioos:station:wmo:42051:1,2014-02-04T00:30:00Z,29.6350,-93.6417,2.0,277.2082177,44.6327055,-99999.0,'11111222,11111222,99999999' 
TABS,ioos:station:wmo:42051:1,2014-02-04T01:00:00Z,29.6350,-93.6417,2.0,279.24794,36.83878391,-99999.0,'11111222,11111222,99999999' 
TABS,ioos:station:wmo:42051:1,2014-02-04T01:30:00Z,29.6350,-93.6417,2.0,280.6776227,31.79040264,-99999.0,'11111222,11111222,99999999' 
TABS,ioos:station:wmo:42051:1,2014-02-04T02:00:00Z,29.6350,-93.6417,2.0,264.8723982,29.31730547,-99999.0,'11111222,11111222,99999999' 
TABS,ioos:station:wmo:42051:1,2014-02-04T02:30:00Z,29.6350,-93.6417,2.0,271.4016779,54.79638674,-99999.0,'11111222,11111222,99999999' 
TABS,ioos:station:wmo:42051:1,2014-02-04T03:00:00Z,29.6350,-93.6417,2.0,268.6866524,54.55432247,-99999.0,'11111222,11111222,99999999' 
TABS,ioos:station:wmo:42051:1,2014-02-04T03:30:00Z,29.6350,-93.6417,2.0,271.5731559,51.00921583,-99999.0,'11111222,11111222,99999999' 
TABS,ioos:station:wmo:42051:1,2014-02-04T04:00:00Z,29.6350,-93.6417,2.0,271.7232781,43.23954671,-99999.0,'11111222,11111222,99999999' 
TABS,ioos:station:wmo:42051:1,2014-02-04T04:30:00Z,29.6350,-93.6417,2.0,266.4911299,42.64993552,-99999.0,'11111222,11111222,99999999' 
TABS,ioos:station:wmo:42051:1,2014-02-04T05:00:00Z,29.6350,-93.6417,2.0,272.6457915,52.86633806,-99999.0,'11111222,11111222,99999999' 
TABS,ioos:station:wmo:42051:1,2014-02-04T05:30:00Z,29.6350,-93.6417,2.0,267.0887481,46.67021534,-99999.0,'11111222,11111222,99999999' 
TABS,ioos:station:wmo:42051:1,2014-02-04T06:00:00Z,29.6350,-93.6417,2.0,266.144151,42.38592455,-99999.0,'11111222,11111222,99999999' 
TABS,ioos:station:wmo:42051:1,2014-02-04T06:30:00Z,29.6350,-93.6417,2.0,271.9921165,50.6405934,-99999.0,'11111222,11111222,99999999' 
TABS,ioos:station:wmo:42051:1,2014-02-04T07:00:00Z,29.6350,-93.6417,2.0,267.8134943,45.35300762,-99999.0,'11111222,11111222,99999999' 
TABS,ioos:station:wmo:42051:1,2014-02-04T07:30:00Z,29.6350,-93.6417,2.0,269.3987888,41.9623069,-99999.0,'11111222,11111222,99999999' 
TABS,ioos:station:wmo:42051:1,2014-02-04T08:00:00Z,29.6350,-93.6417,2.0,271.4061669,42.39275882,-99999.0,'11111222,11111222,99999999' 
TABS,ioos:station:wmo:42051:1,2014-02-04T08:30:00Z,29.6350,-93.6417,2.0,268.0351526,50.75983156,-99999.0,'11111222,11111222,99999999' 
TABS,ioos:station:wmo:42051:1,2014-02-04T09:00:00Z,29.6350,-93.6417,2.0,273.6265037,50.2806603,-99999.0,'11111222,11111222,99999999' 
TABS,ioos:station:wmo:42051:1,2014-02-04T09:30:00Z,29.6350,-93.6417,2.0,273.874442,49.58329759,-99999.0,'11111222,11111222,99999999' 
TABS,ioos:station:wmo:42051:1,2014-02-04T10:00:00Z,29.6350,-93.6417,2.0,269.7784895,51.83038588,-99999.0,'11111222,11111222,99999999' 
TABS,ioos:station:wmo:42051:1,2014-02-04T10:30:00Z,29.6350,-93.6417,2.0,267.8507208,50.40544613,-99999.0,'11111222,11111222,99999999' 
TABS,ioos:station:wmo:42051:1,2014-02-04T11:00:00Z,29.6350,-93.6417,2.0,267.6130731,42.02645119,-99999.0,'11111222,11111222,99999999' 
TABS,ioos:station:wmo:42051:1,2014-02-04T11:30:00Z,29.6350,-93.6417,2.0,275.3727073,41.12062864,-99999.0,'11111222,11111222,99999999' 
TABS,ioos:station:wmo:42051:1,2014-02-04T12:00:00Z,29.6350,-93.6417,2.0,274.1552739,34.78141026,-99999.0,'11111222,11111222,99999999' 
TABS,ioos:station:wmo:42051:1,2014-02-04T12:30:00Z,29.6350,-93.6417,2.0,268.8601323,41.73825344,-99999.0,'11111222,11111222,99999999' 
TABS,ioos:station:wmo:42051:1,2014-02-04T13:00:00Z,29.6350,-93.6417,2.0,270.6732774,40.02275977,-99999.0,'11111222,11111222,99999999' 
TABS,ioos:station:wmo:42051:1,2014-02-04T13:30:00Z,29.6350,-93.6417,2.0,263.6856276,36.1895192,-99999.0,'11111222,11111222,99999999' 
TABS,ioos:station:wmo:42051:1,2014-02-04T14:00:00Z,29.6350,-93.6417,2.0,263.1952501,37.896926,-99999.0,'11111222,11111222,99999999' 
TABS,ioos:station:wmo:42051:1,2014-02-04T14:30:00Z,29.6350,-93.6417,2.0,260.0533605,45.15872452,-99999.0,'11111222,11111222,99999999' 
TABS,ioos:station:wmo:42051:1,2014-02-04T15:00:00Z,29.6350,-93.6417,2.0,258.2169284,38.98136991,-99999.0,'11111222,11111222,99999999' 
TABS,ioos:station:wmo:42051:1,2014-02-04T15:30:00Z,29.6350,-93.6417,2.0,254.3120537,43.34456483,-99999.0,'11111222,11111222,99999999' 
TABS,ioos:station:wmo:42051:1,2014-02-04T16:00:00Z,29.6350,-93.6417,2.0,262.3207891,40.93709565,-99999.0,'11111222,11111222,99999999' 